Lid_Strength_Index
20 20 19 18 18 21 19 19 16 15 15 16 16 15 15 15 15 15 15 15 15 15 16 15 15 15 16 16 15 14 15 15 17 16 16 14 14 12 10 8 7 7 7
22 21 20 19 21 23 22 20 17 16 15 16 15 15 15 15 15 15 15 16 18 20 20 17 16 15 16 16 17 16 16 15 16 18 16 16 15 13 10 9 8 8 9
25 23 21 21 21 21 22 22 20 16 15 16 15 16 15 15 15 19 18 16 16 18 23 24 22 23 18 19 19 16 17 15 15 16 16 15 14 12 10 11 11 9 9
26 24 23 22 21 21 21 21 20 17 16 16 16 15 15 15 20 21 22 24 23 22 22 23 22 22 20 20 17 18 16 15 15 15 15 16 16 13 12 12 12 11 11
28 26 24 24 25 25 24 24 23 19 19 16 15 15 20 22 20 22 22 22 22 22 23 23 22 20 17 16 16 17 17 17 16 16 17 16 16 16 16 13 14 13 12
29 26 27 28 26 24 24 25 24 23 22 17 20 22 21 19 16 14 15 20 21 20 20 20 20 19 17 14 13 13 14 16 16 17 17 16 16 16 15 15 15 16 16
24 23 22 22 22 22 21 21 22 22 22 21 21 21 21 21 15 14 13 17 19 20 19 18 18 17 18 17 16 14 13 14 13 16 17 17 18 17 16 17 17 17 18
22 20 19 20 20 20 20 20 20 20 20 20 19 19 19 18 14 13 13 15 16 17 18 18 19 18 18 18 17 17 16 16 16 16 17 17 17 17 18 18 18 18 20
20 20 20 19 20 19 19 20 19 19 19 19 18 18 18 17 14 13 14 16 16 16 16 16 17 18 16 14 17 17 17 17 15 13 13 13 13 13 15 20 22 25 24
19 19 19 19 19 20 19 18 18 18 17 17 16 17 17 17 15 13 14 16 17 17 17 17 15 16 15 14 16 18 19 18 18 19 19 17 16 17 16 20 22 25 25
20 20 20 20 20 20 19 18 18 18 18 18 18 18 18 18 17 14 13 15 16 17 17 17 17 14 13 13 13 18 17 18 18 21 22 22 21 20 21 21 21 23 26
22 22 22 22 21 20 21 20 21 20 20 20 21 20 19 19 17 15 14 13 14 16 17 16 17 14 13 13 13 13 13 14 24 25 26 22 22 22 22 21 21 22 22
25 25 24 22 21 20 21 21 21 22 21 21 20 20 20 19 19 15 14 14 13 14 16 15 13 13 13 12 12 12 15 22 22 24 21 21 22 22 24 24 24 24 23
26 24 23 22 22 22 21 20 20 21 21 20 20 20 20 20 19 19 18 18 17 16 15 16 15 13 13 15 19 16 19 20 20 19 20 21 22 23 22 23 25 25 26
24 23 23 22 23 22 21 21 20 19 18 18 19 19 19 19 18 15 14 16 17 16 17 21 21 19 19 18 19 19 20 21 21 21 21 20 20 22 22 23 23 24 23
25 24 23 23 22 22 22 22 19 17 16 15 14 14 15 14 13 13 12 12 12 11 13 19 18 17 18 18 18 18 20 20 20 21 20 20 19 19 20 21 22 23 22
28 25 25 23 23 24 25 24 25 22 18 17 16 15 15 15 15 14 14 14 14 15 18 17 18 18 17 17 18 18 19 19 18 20 20 20 20 20 21 21 21 22 22
31 27 27 25 27 28 28 28 29 30 28 26 22 17 17 16 16 15 16 18 24 21 22 22 22 21 21 20 20 20 20 20 20 19 19 20 20 20 22 21 21 22 22
29 28 29 30 31 31 31 31 32 32 32 31 31 24 24 19 19 19 19 30 30 29 28 26 24 24 24 23 23 22 21 21 21 21 21 21 21 22 22 21 21 21 23
33 29 31 34 34 34 33 34 33 33 33 33 32 32 30 32 33 35 35 35 34 33 33 32 31 32 31 29 28 27 26 25 25 25 25 23 23 22 23 24 23 24 25
34 35 32 36 36 37 37 36 36 38 35 34 33 33 21 32 31 36 35 35 36 34 33 34 32 33 34 33 33 32 30 29 29 29 30 29 31 30 32 30 32 33 33
35 36 37 36 36 36 36 37 38 38 36 36 32 35 22 36 34 34 33 33 32 34 33 34 33 32 31 32 32 34 34 32 33 33 33 33 32 31 33 33 35 36 37
35 36 36 37 38 36 36 36 37 36 35 34 33 32 33 32 33 32 32 31 32 32 32 36 34 32 33 33 33 31 30 30 30 32 32 35 34 34 35 35 36 38 37
36 35 33 32 36 35 35 33 33 33 32 32 31 31 30 30 30 30 30 30 32 31 33 33 33 33 31 33 33 33 32 31 36 32 32 33 34 36 38 38 37 38 38
34 33 33 32 33 32 33 33 32 31 31 30 29 29 28 29 29 29 28 30 30 30 30 31 31 31 31 31 31 32 32 27 29 31 32 33 32 33 37 37 38 39 38
31 31 31 31 32 32 32 31 30 29 29 28 27 27 27 27 27 27 27 28 29 28 29 29 30 31 31 31 31 29 29 26 30 29 32 31 31 34 35 35 35 38 37